Location: Boiro
(42.6475°N, 8.8834°W)
Time: 19:07:41
(UTC+01:00)

Tiros 1 despin weight - Pass Details

Date: 09 December 2021
Orbit: 592 x 641 km, 48.2° (Epoch: 27 January)

Event Time Altitude Azimuth Distance (km) Brightness Sun altitude
Rises 10:55:58 0° 189° (S) 2,860 ? 15.7°
Reaches altitude 10° 10:59:19 10° 163° (SSE) 1,949 ? 16.1°
Maximum altitude 11:01:32 14° 133° (SE) 1,720 ? 16.3°
Drops below altitude 10° 11:03:44 10° 103° (ESE) 1,941 ? 16.5°
Sets 11:07:03 0° 77° (ENE) 2,839 ? 16.9°
